Time,TemperatureF,DewpointF,PressureIn,WindDirection,WindDirectionDegrees,WindSpeedMPH,WindSpeedGustMPH,Humidity,HourlyPrecipIn,Conditions,Clouds,dailyrainin,SoftwareType,DateUTC
2013-01-16 00:00:00,41.0,33.0,-100.00,South,187,4.0,-999.0,73,0.00,,,-99.99,,2013-01-16 08:00:00,
2013-01-16 00:23:00,41.0,33.0,-100.00,South,187,4.0,-999.0,73,0.00,,,-99.99,,2013-01-16 08:23:00,
2013-01-16 00:32:00,41.0,33.0,-100.00,South,187,4.0,-999.0,73,0.00,,,-99.99,,2013-01-16 08:32:00,
2013-01-16 00:42:00,41.0,33.0,-100.00,South,187,4.0,-999.0,73,0.00,,,-99.99,,2013-01-16 08:42:00,
2013-01-16 00:52:00,41.0,33.0,-100.00,South,187,4.0,-999.0,73,0.00,,,-99.99,,2013-01-16 08:52:00,
2013-01-16 01:22:00,41.0,32.0,-100.00,South,186,4.0,-999.0,70,0.00,,,-99.99,,2013-01-16 09:22:00,
2013-01-16 01:33:00,41.0,32.0,-100.00,South,186,4.0,-999.0,70,0.00,,,-99.99,,2013-01-16 09:33:00,
2013-01-16 02:22:00,40.0,31.0,-100.00,South,183,3.0,-999.0,70,0.00,,,-99.99,,2013-01-16 10:22:00,
2013-01-16 02:32:00,40.0,31.0,-100.00,South,183,3.0,-999.0,70,0.00,,,-99.99,,2013-01-16 10:32:00,
2013-01-16 03:23:00,39.0,32.0,-100.00,South,189,4.0,-999.0,73,0.00,,,-99.99,,2013-01-16 11:23:00,
2013-01-16 03:33:00,39.0,32.0,-100.00,South,189,4.0,-999.0,73,0.00,,,-99.99,,2013-01-16 11:33:00,
2013-01-16 04:00:00,39.0,32.0,-100.00,SSW,196,4.0,-999.0,76,0.00,,,-99.99,,2013-01-16 12:00:00,
2013-01-16 04:22:00,39.0,32.0,-100.00,SSW,196,4.0,-999.0,76,0.00,,,-99.99,,2013-01-16 12:22:00,
2013-01-16 04:33:00,39.0,32.0,-100.00,SSW,196,4.0,-999.0,76,0.00,,,-99.99,,2013-01-16 12:33:00,
2013-01-16 04:43:00,39.0,32.0,-100.00,SSW,196,4.0,-999.0,76,0.00,,,-99.99,,2013-01-16 12:43:00,
2013-01-16 04:53:00,39.0,32.0,-100.00,SSW,196,4.0,-999.0,76,0.00,,,-99.99,,2013-01-16 12:53:00,
2013-01-16 05:23:00,40.0,31.0,-100.00,South,185,4.0,-999.0,70,0.00,,,-99.99,,2013-01-16 13:23:00,
2013-01-16 05:33:00,40.0,31.0,-100.00,South,185,4.0,-999.0,70,0.00,,,-99.99,,2013-01-16 13:33:00,
2013-01-16 06:23:00,40.0,30.0,-100.00,South,190,4.0,-999.0,67,0.00,,,-99.99,,2013-01-16 14:23:00,
2013-01-16 06:33:00,40.0,30.0,-100.00,South,190,4.0,-999.0,67,0.00,,,-99.99,,2013-01-16 14:33:00,
2013-01-16 07:23:00,38.0,31.0,-100.00,South,177,2.0,-999.0,73,0.00,,,-99.99,,2013-01-16 15:23:00,
2013-01-16 07:33:00,38.0,31.0,-100.00,South,177,2.0,-999.0,73,0.00,,,-99.99,,2013-01-16 15:33:00,
2013-01-16 08:23:00,43.0,33.0,-100.00,SE,143,4.0,-999.0,68,0.00,,,-99.99,,2013-01-16 16:23:00,
2013-01-16 08:33:00,43.0,33.0,-100.00,SE,143,4.0,-999.0,68,0.00,,,-99.99,,2013-01-16 16:33:00,
2013-01-16 09:00:00,43.0,31.0,-100.00,SSW,194,4.0,-999.0,60,0.00,,,-99.99,,2013-01-16 17:00:00,
2013-01-16 09:23:00,43.0,31.0,-100.00,SSW,194,4.0,-999.0,60,0.00,,,-99.99,,2013-01-16 17:23:00,
2013-01-16 09:33:00,43.0,31.0,-100.00,SSW,194,4.0,-999.0,60,0.00,,,-99.99,,2013-01-16 17:33:00,
2013-01-16 09:44:00,43.0,31.0,-100.00,SSW,194,4.0,-999.0,60,0.00,,,-99.99,,2013-01-16 17:44:00,
2013-01-16 09:53:00,43.0,31.0,-100.00,SSW,194,4.0,-999.0,60,0.00,,,-99.99,,2013-01-16 17:53:00,
2013-01-16 10:00:00,50.0,36.0,-100.00,NE,41,3.0,-999.0,57,0.00,,,-99.99,,2013-01-16 18:00:00,
2013-01-16 10:23:00,50.0,36.0,-100.00,NE,41,3.0,-999.0,57,0.00,,,-99.99,,2013-01-16 18:23:00,
2013-01-16 10:33:00,50.0,36.0,-100.00,NE,41,3.0,-999.0,57,0.00,,,-99.99,,2013-01-16 18:33:00,
2013-01-16 10:43:00,50.0,36.0,-100.00,NE,41,3.0,-999.0,57,0.00,,,-99.99,,2013-01-16 18:43:00,
2013-01-16 10:53:00,50.0,36.0,-100.00,NE,41,3.0,-999.0,57,0.00,,,-99.99,,2013-01-16 18:53:00,
2013-01-16 11:23:00,55.0,36.0,-100.00,SSW,204,1.0,-999.0,48,0.00,,,-99.99,,2013-01-16 19:23:00,
2013-01-16 11:33:00,55.0,36.0,-100.00,SSW,204,1.0,-999.0,48,0.00,,,-99.99,,2013-01-16 19:33:00,
2013-01-16 12:23:00,58.0,34.0,-100.00,WSW,254,3.0,-999.0,40,0.00,,,-99.99,,2013-01-16 20:23:00,
2013-01-16 12:33:00,58.0,34.0,-100.00,WSW,254,3.0,-999.0,40,0.00,,,-99.99,,2013-01-16 20:33:00,
2013-01-16 13:00:00,57.0,32.0,-100.00,West,259,3.0,-999.0,38,0.00,,,-99.99,,2013-01-16 21:00:00,
2013-01-16 13:23:00,57.0,32.0,-100.00,West,259,3.0,-999.0,38,0.00,,,-99.99,,2013-01-16 21:23:00,
2013-01-16 13:33:00,57.0,32.0,-100.00,West,259,3.0,-999.0,38,0.00,,,-99.99,,2013-01-16 21:33:00,
2013-01-16 13:43:00,57.0,32.0,-100.00,West,259,3.0,-999.0,38,0.00,,,-99.99,,2013-01-16 21:43:00,
2013-01-16 13:52:00,57.0,32.0,-100.00,West,259,3.0,-999.0,38,0.00,,,-99.99,,2013-01-16 21:52:00,
2013-01-16 14:00:00,56.0,40.0,-100.00,WSW,254,5.0,-999.0,55,0.00,,,-99.99,,2013-01-16 22:00:00,
2013-01-16 14:23:00,56.0,40.0,-100.00,WSW,254,5.0,-999.0,55,0.00,,,-99.99,,2013-01-16 22:23:00,
2013-01-16 14:33:00,56.0,40.0,-100.00,WSW,254,5.0,-999.0,55,0.00,,,-99.99,,2013-01-16 22:33:00,
2013-01-16 14:43:00,56.0,40.0,-100.00,WSW,254,5.0,-999.0,55,0.00,,,-99.99,,2013-01-16 22:43:00,
2013-01-16 14:52:00,56.0,40.0,-100.00,WSW,254,5.0,-999.0,55,0.00,,,-99.99,,2013-01-16 22:52:00,
2013-01-16 15:00:00,55.0,40.0,-100.00,NW,310,5.0,-999.0,55,0.00,,,-99.99,,2013-01-16 23:00:00,
2013-01-16 15:23:00,55.0,40.0,-100.00,NW,310,5.0,-999.0,55,0.00,,,-99.99,,2013-01-16 23:23:00,
2013-01-16 15:33:00,55.0,40.0,-100.00,NW,310,5.0,-999.0,55,0.00,,,-99.99,,2013-01-16 23:33:00,
2013-01-16 15:43:00,55.0,40.0,-100.00,NW,310,5.0,-999.0,55,0.00,,,-99.99,,2013-01-16 23:43:00,
2013-01-16 15:53:00,55.0,40.0,-100.00,NW,310,5.0,-999.0,55,0.00,,,-99.99,,2013-01-16 23:53:00,
2013-01-16 16:00:00,55.0,41.0,-100.00,WSW,254,3.0,-999.0,59,0.00,,,-99.99,,2013-01-17 00:00:00,
2013-01-16 16:22:00,55.0,41.0,-100.00,WSW,254,3.0,-999.0,59,0.00,,,-99.99,,2013-01-17 00:22:00,
2013-01-16 16:33:00,55.0,41.0,-100.00,WSW,254,3.0,-999.0,59,0.00,,,-99.99,,2013-01-17 00:33:00,
2013-01-16 16:42:00,55.0,41.0,-100.00,WSW,254,3.0,-999.0,59,0.00,,,-99.99,,2013-01-17 00:42:00,
2013-01-16 16:52:00,55.0,41.0,-100.00,WSW,254,3.0,-999.0,59,0.00,,,-99.99,,2013-01-17 00:52:00,
2013-01-16 17:00:00,54.0,39.0,-100.00,SSW,196,3.0,-999.0,55,0.00,,,-99.99,,2013-01-17 01:00:00,
2013-01-16 17:22:00,54.0,39.0,-100.00,SSW,196,3.0,-999.0,55,0.00,,,-99.99,,2013-01-17 01:22:00,
2013-01-16 17:33:00,54.0,39.0,-100.00,SSW,196,3.0,-999.0,55,0.00,,,-99.99,,2013-01-17 01:33:00,
2013-01-16 17:43:00,54.0,39.0,-100.00,SSW,196,3.0,-999.0,55,0.00,,,-99.99,,2013-01-17 01:43:00,
2013-01-16 17:52:00,54.0,39.0,-100.00,SSW,196,3.0,-999.0,55,0.00,,,-99.99,,2013-01-17 01:52:00,
2013-01-16 18:00:00,47.0,35.0,-100.00,SSW,195,5.0,-999.0,61,0.00,,,-99.99,,2013-01-17 02:00:00,
2013-01-16 18:22:00,47.0,35.0,-100.00,SSW,195,5.0,-999.0,61,0.00,,,-99.99,,2013-01-17 02:22:00,
2013-01-16 18:32:00,47.0,35.0,-100.00,SSW,195,5.0,-999.0,61,0.00,,,-99.99,,2013-01-17 02:32:00,
2013-01-16 18:43:00,47.0,35.0,-100.00,SSW,195,5.0,-999.0,61,0.00,,,-99.99,,2013-01-17 02:43:00,
2013-01-16 18:52:00,47.0,35.0,-100.00,SSW,195,5.0,-999.0,61,0.00,,,-99.99,,2013-01-17 02:52:00,
2013-01-16 19:00:00,45.0,32.0,-100.00,SSW,196,5.0,-999.0,60,0.00,,,-99.99,,2013-01-17 03:00:00,
2013-01-16 19:22:00,45.0,32.0,-100.00,SSW,196,5.0,-999.0,60,0.00,,,-99.99,,2013-01-17 03:22:00,
2013-01-16 19:33:00,45.0,32.0,-100.00,SSW,196,5.0,-999.0,60,0.00,,,-99.99,,2013-01-17 03:33:00,
2013-01-16 19:43:00,45.0,32.0,-100.00,SSW,196,5.0,-999.0,60,0.00,,,-99.99,,2013-01-17 03:43:00,
2013-01-16 19:52:00,45.0,32.0,-100.00,SSW,196,5.0,-999.0,60,0.00,,,-99.99,,2013-01-17 03:52:00,
2013-01-16 20:23:00,47.0,33.0,-100.00,South,187,4.0,-999.0,56,0.00,,,-99.99,,2013-01-17 04:23:00,
2013-01-16 20:33:00,47.0,33.0,-100.00,South,187,4.0,-999.0,56,0.00,,,-99.99,,2013-01-17 04:33:00,
2013-01-16 21:22:00,48.0,35.0,-100.00,SSW,194,5.0,-999.0,61,0.00,,,-99.99,,2013-01-17 05:22:00,
2013-01-16 21:33:00,48.0,35.0,-100.00,SSW,194,5.0,-999.0,61,0.00,,,-99.99,,2013-01-17 05:33:00,
2013-01-16 21:43:00,48.0,35.0,-100.00,SSW,194,5.0,-999.0,61,0.00,,,-99.99,,2013-01-17 05:43:00,
2013-01-16 21:53:00,48.0,35.0,-100.00,SSW,194,5.0,-999.0,61,0.00,,,-99.99,,2013-01-17 05:53:00,
2013-01-16 22:00:00,45.0,34.0,-100.00,South,187,4.0,-999.0,64,0.00,,,-99.99,,2013-01-17 06:00:00,
2013-01-16 22:22:00,45.0,34.0,-100.00,South,187,4.0,-999.0,64,0.00,,,-99.99,,2013-01-17 06:22:00,
2013-01-16 22:33:00,45.0,34.0,-100.00,South,187,4.0,-999.0,64,0.00,,,-99.99,,2013-01-17 06:33:00,
2013-01-16 22:42:00,45.0,34.0,-100.00,South,187,4.0,-999.0,64,0.00,,,-99.99,,2013-01-17 06:42:00,
2013-01-16 22:52:00,45.0,34.0,-100.00,South,187,4.0,-999.0,64,0.00,,,-99.99,,2013-01-17 06:52:00,
2013-01-16 23:22:00,47.0,35.0,-100.00,South,182,4.0,-999.0,62,0.00,,,-99.99,,2013-01-17 07:22:00,
2013-01-16 23:33:00,47.0,35.0,-100.00,South,182,4.0,-999.0,62,0.00,,,-99.99,,2013-01-17 07:33:00,